Regional Weather Roundup
Issued by NWS

Home | Current Version | Previous Version | Text Only | Print | Product List | Glossary Off
Versions: 1 2 3 4 5 6 7 8 9 10 11 12 13 14 15 16 17 18 19 20 21 22 23 24 25 26 27 28 29 30 31 32 33 34 35 36 37 38 39 40 41 42 43 44 45 46 47 48 49 50

976
ASUS43 KBIS 141702
RWRND

NORTH DAKOTA REGIONAL WEATHER ROUNDUP
NATIONAL WEATHER SERVICE BISMARCK ND
1100 AM CST THU DEC 14 2017

NOTE: "FAIR" INDICATES FEW OR NO CLOUDS BELOW 12,000 FEET WITH NO
SIGNIFICANT WEATHER AND/OR OBSTRUCTIONS TO VISIBILITY.


NDZ001>003-009>011-017-141800-
NORTHWEST NORTH DAKOTA

CITY           SKY/WX    TMP DP  RH WIND       PRES   REMARKS
WILLISTON      CLOUDY    34  26  72 NW15G23   30.20S
MINOT          CLOUDY    32  23  69 NW15      30.12S
MINOT AFB      CLOUDY    31  23  72 NW15      30.11R WCI  20
$$

NDZ018>021-031>035-040>046-141800-
SOUTHWEST NORTH DAKOTA

CITY           SKY/WX    TMP DP  RH WIND       PRES   REMARKS
BISMARCK       CLOUDY    32  27  81 N10       30.13R
DICKINSON      PTSUNNY   31  24  75 NW18G28   30.15R WCI  19
GARRISON         N/A     31  22  69 N24       30.13R WCI  17
HETTINGER ARPT CLOUDY    32  27  81 NW18G28   30.17R
$$

NDZ004>008-012>016-024-026-027-054-141800-
NORTHEAST NORTH DAKOTA

CITY           SKY/WX    TMP DP  RH WIND       PRES   REMARKS
GRAND FORKS    CLOUDY    21  17  84 N20       30.08R WCI   6
GRND FRKS AFB  CLOUDY    22  17  80 N13       30.08R WCI  10
DEVILS LAKE    CLOUDY    24  22  91 NW12      30.08R WCI  13
$$

NDZ022-023-025-028>030-036>039-047>053-141800-
SOUTHEAST NORTH DAKOTA

CITY           SKY/WX    TMP DP  RH WIND       PRES   REMARKS
FARGO          CLOUDY    24  19  81 N13       30.08S WCI  12
JAMESTOWN      CLOUDY    25  24  96 N9        30.07R FOG     WCI  15
$$





USA.gov is the U.S. government's official web portal to all federal, state and local government web resources and services.